Regional Weather Roundup
Issued by NWS

Home | Current Version | Previous Version | Text Only | Print | Product List | Glossary Off
Versions: 1 2 3 4 5 6 7 8 9 10 11 12 13 14 15 16 17 18 19 20 21 22 23 24 25 26 27 28 29 30 31 32 33 34 35 36 37 38 39 40 41 42 43 44 45 46 47 48 49 50

000
ASUS45 KBOU 010507
RWRCO

WEATHER ROUNDUP FOR COLORADO
NATIONAL WEATHER SERVICE DENVER/BOULDER CO
1100 PM MDT THU JUL 31 2014

NOTE: "FAIR" INDICATES FEW OR NO CLOUDS BELOW 12000 FEET WITH NO
SIGNIFICANT WEATHER AND/OR OBSTRUCTIONS TO VISIBILITY.

COZ001>005-013-030-031-010600-
...NORTHWEST COLORADO...

CITY           SKY/WX    TMP DP  RH WIND       PRES   REMARKS
CRAIG          CLOUDY    58  52  80 NE8       30.24R
HAYDEN         PTCLDY    63  48  59 E9        30.27S
MEEKER         MOCLDY    65  50  58 CALM      30.24S
MOUNT WERNER   NOT AVBL
STEAMBOAT SPGS PTCLDY    59  46  62 NW3       30.30R
WALDEN         CLEAR     50  41  71 CALM      30.41S
$$

COZ006>008-011-010600-
...WEST CENTRAL VALLEYS...

CITY           SKY/WX    TMP DP  RH WIND       PRES   REMARKS
GRAND JUNCTION MOCLDY    76  52  43 N6        30.12R
MONTROSE       MOCLDY    70  57  63 S8        30.20S
EAGLE          MOCLDY    61  55  82 S5        30.31R
RIFLE          MOCLDY    69  48  47 SE9       30.19R
DELTA          MOCLDY    75  50  41 N3        30.16R
NUCLA          MOCLDY    70  54  56 S3        30.25R
$$

COZ017>023-064>068-010600-
...SOUTHWEST COLORADO...

CITY           SKY/WX    TMP DP  RH WIND       PRES   REMARKS
DURANGO        MOCLDY    65  52  62 SE10      30.31R
CORTEZ         CLEAR     68  50  52 SW3       30.21R
PAGOSA SPRINGS CLOUDY    58  54  85 NE5       30.40S
TELLURIDE      MOCLDY    59  48  67 SE5       30.44R
WOLF CREEK PAS NOT AVBL
$$

COZ009-010-012-014-032>034-037-058>063-010600-
...CENTRAL COLORADO...

CITY           SKY/WX    TMP DP  RH WIND       PRES   REMARKS
ASPEN          CLOUDY    59  51  75 S3        30.35S
BUENA VISTA    CLOUDY    54  51  90 CALM      30.45S
COPPER MTN     CLOUDY    46  39  76 S12       30.66S
BERTHOUD PASS  FOG       36  36 100 SE16      30.71S VSB<1/4
COTTONWOOD PAS CLOUDY    52  46  82 CALM      30.56R
GUNNISON       CLOUDY    57  48  72 NE9       30.42R
KREMMLING      MOCLDY    59  43  55 SE9       30.38R
LEADVILLE      CLOUDY    47  46  97 SW5         N/A
MONARCH PASS   RAIN      41  39  93 NE12      30.77R
SALIDA         CLOUDY    56  55  94 CALM      30.50S
SUNLIGHT       MOCLDY    52  46  82 CALM      30.58S
WILKERSON PASS FOG       43  43 100 E9        30.66S VSB 1/4
$$

COZ069>075-010600-
...SAN LUIS VALLEY/SANGRE DE CRISTO MOUNTAINS...

CITY           SKY/WX    TMP DP  RH WIND       PRES   REMARKS
ALAMOSA        MOCLDY    56  52  86 SE10      30.39R
LA VETA PASS   DRZL/FOG  46  45  93 E7        30.56S VSB 1/4
SAGUACHE       CLOUDY    57  54  88 NW3       30.42R
$$

COZ035-036-038>040-010600-
...NORTHERN COLORADO FRONT RANGE...

CITY           SKY/WX    TMP DP  RH WIND       PRES   REMARKS
DENVER INTL AP PTCLDY    65  50  58 SW9       30.28R
DMNS CITY PARK   N/A     62  55  79 S2        30.27S
AURORA         MOCLDY    61  52  74 S7        30.30S
FRONT RANGE AP PTCLDY    64  54  68 SW7       30.29S
ERIE MUNI ARPT PTCLDY    60  53  76 CALM      30.26S
BOULDER MUN AP PTCLDY    64  46  52 SW8       30.27S
CENTENNIAL     MOCLDY    61  52  72 S6        30.31S
BROOMFIELD     NOT AVBL
FORT COLLINS   CLEAR     64  48  55 SW6       30.26S
LONGMONT       CLEAR     63  52  67 W6        30.28S
$$

COZ041-046-047-076>085-087-088-010600-
...PIKES PEAK/PALMER DIVIDE AND SOUTHERN FOOTHILLS...

CITY           SKY/WX    TMP DP  RH WIND       PRES   REMARKS
COLO. SPRINGS  CLOUDY    63  56  78 CALM      30.36S
A. F. ACADEMY  CLOUDY    59  59  99 CALM      30.36F
ELLICOTT       MOCLDY    59  56  89 CALM      30.34S
FALCON         CLOUDY    57  56  95 W3        30.39F FOG
FORT CARSON    CLOUDY    62  58  87 NW2       30.33S
LIMON          PTCLDY    58  53  84 CALM      30.29S
MONUMENT HILL  PTCLDY    54  52  94 SW8       30.38S
TRINIDAD       CLOUDY    64  56  75 W3        30.33R
$$

COZ042>045-048>051-090-091-010600-
...NORTHEAST COLORADO...

CITY           SKY/WX    TMP DP  RH WIND       PRES   REMARKS
GREELEY ARPT   NOT AVBL
AKRON          CLEAR     66  49  54 S8        30.22S
BURLINGTON     PTCLDY    62  51  67 W8        30.21S
WRAY             N/A     70  57  65 W3        30.16S
STERLING       CLEAR     68  59  73 NW3       30.18S
HOLYOKE        CLEAR     64  59  82 CALM      30.18R
FORT MORGAN    CLEAR     69  44  41 CALM      30.22S
$$

COZ086-089-092>099-010600-
...SOUTHEAST COLORADO...

CITY           SKY/WX    TMP DP  RH WIND       PRES   REMARKS
PUEBLO         CLOUDY    64  61  90 W3        30.27R
LA JUNTA       PTCLDY    66  55  67 S5        30.24S
LAMAR          PTCLDY    62  58  86 S9        30.19S
SPRINGFIELD      N/A     63  56  78 S6        30.26R
$$


USA.gov is the U.S. government's official web portal to all federal, state and local government web resources and services.